Zurück zum Katalog

YAM-12

AktivWissenschaftSSO
NORAD 69003·PAYLOAD·🇺🇸 United States

Gestartet May 3, 2026 von Vandenberg Space Force Base

Loading…

Nächste Überflüge (nächste 24 Stunden)

TLE

AktuellSource: Space-Track

Epoche: Sep 14, 2026, 11:00 UTC

1 69003U 26100Z   26257.45858426  .00001215  00000-0  13003-3 0  9990
2 69003  97.7761 153.3169 0001609  74.5798 285.5598 14.90531011 19985

Verfolge YAM-12 in Echtzeit mit AllMySat

Download on the App Store